K5EBQ Weather Reports


time (UTC)temp
C
wind
direction
speed
KPH
gust
KPH
rain 1hr
cm
rain 24hr
cm
rain mn
cm
humidity
%
barometer
mb
20260507030027 22 355 0.0 0.0 0.00 0.03 0.03 82 1009.4
20260507024525 23 355 0.0 0.0 0.00 0.03 0.03 82 1009.2
20260507023021 23 355 0.0 0.0 0.00 0.03 0.03 83 1008.7
20260507021521 23 350 0.0 0.0 0.00 0.03 0.03 83 1008.5
20260507020020 23 5 0.0 0.0 0.00 0.03 0.03 83 1008.4
20260507014523 23 349 0.0 0.0 0.00 0.03 0.03 83 1008.0
20260507013014 24 360 0.0 0.0 0.03 0.03 0.03 83 1007.9
20260507011513 24 43 0.0 0.0 0.03 0.03 0.03 84 1007.5
20260507010013 25 355 0.0 0.0 0.03 0.03 0.03 84 1007.3
20260507004516 25 305 0.0 0.0 0.03 0.03 0.03 84 1006.9
20260507003011 27 24 0.0 0.0 0.00 0.00 0.00 79 1006.6
20260507001514 29 242 0.0 0.0 0.00 0.00 0.00 82 1006.1
20260507000011 29 261 0.0 0.0 0.00 0.00 0.00 82 1006.0
20260506234513 30 197 0.0 0.0 0.00 0.00 0.00 79 1005.9
20260506233008 30 159 0.0 0.0 0.00 0.00 0.00 76 1005.8
20260506231509 30 159 0.0 0.0 0.00 0.00 0.00 75 1005.8
20260506230009 30 208 0.0 0.0 0.00 0.00 0.00 75 1005.6
20260506224507 30 212 0.0 0.0 0.00 0.00 0.00 76 1005.6
20260506223007 30 240 0.0 0.0 0.00 0.00 0.00 75 1005.6
20260506221507 30 209 0.0 0.0 0.00 0.00 0.00 75 1005.5
20260506220015 30 224 0.0 0.0 0.00 0.00 0.00 76 1005.4
20260506214506 30 198 0.0 0.0 0.00 0.00 0.00 74 1005.5
20260506213004 31 217 0.0 0.0 0.00 0.00 0.00 74 1005.6
20260506211508 30 232 0.0 0.0 0.00 0.00 0.00 75 1005.4
20260506210007 30 209 0.0 0.0 0.00 0.00 0.00 77 1005.7
20260506204502 30 219 0.0 0.0 0.00 0.00 0.00 76 1006.0
20260506203004 30 194 0.0 0.0 0.00 0.00 0.00 74 1006.0
20260506201600 30 165 0.0 0.0 0.00 0.00 0.00 75 1006.1
20260506200058 30 220 0.0 0.0 0.00 0.00 0.00 75 1006.1
20260506194628 30 159 0.0 0.0 0.00 0.00 0.00 77 1006.2
20260506194527 30 159 0.0 0.0 0.00 0.00 0.00 77 1006.2
20260506193104 30 242 0.0 0.0 0.00 0.00 0.00 79 1006.3
20260506191556 30 211 0.0 0.0 0.00 0.00 0.00 77 1006.7
20260506190100 30 142 0.0 0.0 0.00 0.00 0.00 77 1006.8
20260506184552 30 211 0.0 0.0 0.00 0.00 0.00 78 1006.9
20260506183050 29 240 0.0 0.0 0.00 0.00 0.00 80 1007.0
20260506181548 28 219 0.0 0.0 0.00 0.00 0.00 80 1007.4
20260506180100 28 256 0.0 0.0 0.00 0.00 0.00 80 1007.8
20260506174545 28 161 0.0 0.0 0.00 0.00 0.00 82 1008.0
20260506173043 28 273 0.0 0.0 0.00 0.00 0.00 82 1008.3
20260506171541 27 205 0.0 0.0 0.00 0.00 0.00 84 1008.3
20260506170041 27 150 0.0 0.0 0.00 0.00 0.00 85 1008.4
20260506164535 27 183 0.0 0.0 0.00 0.00 0.00 85 1008.5
20260506163055 27 160 0.0 0.0 0.00 0.00 0.00 86 1008.4
20260506161533 27 184 0.0 0.0 0.00 0.00 0.00 86 1008.0
20260506160031 27 163 0.0 0.0 0.00 0.00 0.00 85 1008.0
20260506154527 27 147 0.0 0.0 0.00 0.00 0.00 86 1007.9
20260506153024 27 165 0.0 0.0 0.00 0.00 0.00 86 1007.9
20260506151523 27 165 0.0 0.0 0.00 0.00 0.00 87 1007.5
20260506150026 26 204 0.0 0.0 0.00 0.00 0.00 87 1007.4
20260506144520 26 125 0.0 0.0 0.00 0.00 0.00 88 1007.2
20260506143018 26 185 0.0 0.0 0.00 0.00 0.00 89 1006.9
20260506141515 26 115 0.0 0.0 0.00 0.00 0.00 90 1007.0
20260506140013 25 130 0.0 0.0 0.00 0.00 0.00 92 1007.2
20260506134509 25 159 0.0 0.0 0.00 0.00 0.00 93 1007.2
20260506133009 25 161 0.0 0.0 0.00 0.00 0.00 94 1007.2
20260506131513 25 161 0.0 0.0 0.00 0.00 0.00 94 1007.5
20260506130007 25 161 0.0 0.0 0.00 0.00 0.00 94 1007.3
20260506124506 24 130 0.0 0.0 0.00 0.00 0.00 94 1007.3
20260506123005 24 90 0.0 0.0 0.00 0.00 0.00 94 1007.2
20260506121504 24 130 0.0 0.0 0.00 0.00 0.00 94 1007.1
20260506120006 24 130 0.0 0.0 0.00 0.00 0.00 95 1006.9
20260506114504 24 130 0.0 0.0 0.00 0.00 0.00 94 1006.7
20260506113003 24 130 0.0 0.0 0.00 0.00 0.00 94 1006.6
20260506111502 24 151 0.0 0.0 0.00 0.00 0.00 94 1006.3
20260506110002 24 151 0.0 0.0 0.00 0.00 0.00 94 1006.1
20260506104603 24 151 0.0 0.0 0.00 0.00 0.00 93 1006.1
20260506104500 24 150 0.0 0.0 0.00 0.00 0.00 93 1006.1
20260506103100 24 215 0.0 0.0 0.00 0.00 0.00 93 1006.2
20260506101605 24 215 0.0 0.0 0.00 0.00 0.00 93 1006.1
20260506100058 24 148 0.0 0.0 0.00 0.00 0.00 92 1005.8
20260506094622 24 182 0.0 0.0 0.00 0.00 0.00 92 1005.8
20260506093057 24 155 0.0 0.0 0.00 0.00 0.00 92 1005.7
20260506091555 24 163 0.0 0.0 0.00 0.00 0.00 91 1005.7
20260506090053 25 172 0.0 0.0 0.00 0.00 0.00 91 1005.9
20260506084551 25 150 0.0 0.0 0.00 0.00 0.00 91 1005.9
20260506083049 25 159 0.0 0.0 0.00 0.00 0.00 91 1006.0
20260506081548 25 171 0.0 0.0 0.00 0.00 0.00 91 1006.1
20260506073046 25 167 0.0 0.0 0.00 0.00 0.00 91 1006.5
20260506071545 25 166 0.0 0.0 0.00 0.00 0.00 91 1006.7
20260506061539 25 124 0.0 0.0 0.00 0.00 0.00 90 1007.0
20260506044541 25 164 0.0 0.0 0.00 0.00 0.00 89 1007.0
20260506043031 25 165 0.0 0.0 0.00 0.00 0.00 88 1007.0
20260506041531 25 180 0.0 0.0 0.00 0.00 0.00 87 1006.8
20260506040050 26 181 0.0 0.0 0.00 0.00 0.00 86 1006.6
20260506034528 26 150 11.3 59.5 0.00 0.00 0.00 86 1006.8
20260506033029 26 190 4.8 54.7 0.00 0.00 0.00 86 1006.5
20260506031541 26 161 4.8 9.7 0.00 0.00 0.00 85 1006.1